Orbital Elements at Epoch 2459200.5 (2020-Dec-17.0) TDB
Reference: JPL 17 (heliocentric ecliptic J2000)
Element | Value | Uncertainty (1-sigma) | Units |
e | .07359158777587002 | 6.108e-08 | |
a | 1.922148913830241 | 9.1727e-09 | au |
q | 1.78069492331981 | 1.1853e-07 | au |
i | 23.34559190809702 | 7.5031e-06 | deg |
node | 103.6937687755367 | 1.2476e-05 | deg |
peri | 11.48627310363797 | 3.8788e-05 | deg |
M | 252.9739046044134 | 3.7828e-05 | deg |
tp | 2459489.878428208016 (2021-Oct-02.37842821) | 0.00010299 | TDB |
period | 973.372276824944 2.66 | 6.9676e-06 1.908e-08 | d yr |
n | .3698482159100409 | 2.6474e-09 | deg/d |
Q | 2.063602904340673 | 9.8478e-09 | au |
|
| | Orbit Determination Parameters
Additional Information
|